Regional Weather Roundup
Issued by NWS

Home | Current Version | Previous Version | Graphics & Text | Print | Product List | Glossary Off
Versions: 1 2 3 4 5 6 7 8 9 10 11 12 13 14 15 16 17 18 19 20 21 22 23 24 25 26 27 28 29 30 31 32 33 34 35 36 37 38 39 40 41 42 43 44 45 46 47 48 49 50

000
ASUS43 KTOP 300808
RWRKS

WEATHER ROUNDUP FOR KANSAS
NATIONAL WEATHER SERVICE GOODLAND KS
300 AM CDT WED JUL 30 2014

NOTE:  "FAIR" INDICATES FEW OR NO CLOUDS BELOW 12,000 FEET WITH NO
SIGNIFICANT WEATHER AND/OR OBSTRUCTIONS TO VISIBILITY.

KSZ001>006-013>018-027>032-041>047-300900-
NORTHWEST KANSAS

CITY           SKY/WX    TMP DP  RH WIND       PRES   REMARKS
GOODLAND       CLOUDY    63  61  93 N13       30.15F
HAYS           CLOUDY    70  55  60 E8        30.10S
HILL CITY      CLOUDY    69  57  65 E12       30.11F
RUSSELL        CLOUDY    70  58  65 NE9       30.08F
$$

KSZ061>065-074>080-084>089-300900-
SOUTHWEST KANSAS

CITY           SKY/WX    TMP DP  RH WIND       PRES   REMARKS
DODGE CITY     HVY RAIN  66  61  84 E7        30.09S
ELKHART          N/A     66  62  87 W18         N/A
GARDEN CITY    RAIN      66  65  96 E6        30.08F FOG
GREAT BEND     CLOUDY    68  61  77 E3        30.07F
LIBERAL        CLOUDY    66  61  82 SE7       30.06F
PRATT          CLOUDY    70  61  73 SW5       30.10F
$$

KSZ066>073-081>083-090>101-300900-
SOUTHEAST KANSAS

CITY           SKY/WX    TMP DP  RH WIND       PRES   REMARKS
CHANUTE        CLOUDY    68  64  87 N3        30.08F
COFFEYVILLE    CLOUDY    69  63  81 CALM      30.06F
HUTCHINSON     MOCLDY    68  60  75 E5        30.08S
MEDICINE LODGE   N/A     69  66  90 S7        30.08S
NEWTON         MOCLDY    66  54  63 E6        30.12S
PARSONS        MOCLDY    67  61  81 CALM      30.08F
WICHITA INTL   CLOUDY    69  60  73 S3        30.07S
WICHITA JABRA  MOCLDY    67  59  75 E5        30.08S
WICHITA MCCONL CLOUDY    71  61  70 E7        30.07F
WINFIELD       CLOUDY    72  61  68 E5        30.08F
$$

KSZ007>012-019>026-033>040-048>060-102>105-300900-
NORTHEAST KANSAS

CITY           SKY/WX    TMP DP  RH WIND       PRES   REMARKS
CONCORDIA      LGT RAIN  64  64 100 E5        30.12F
EMPORIA        CLOUDY    67  63  87 NE6       30.09F
LAWRENCE       CLOUDY    69  64  84 CALM      30.10S
MANHATTAN      LGT RAIN  67  63  87 SE3       30.12S FOG
MARYSVILLE     CLOUDY    63  57  82 CALM      30.12F
OLATHE IND     CLOUDY    70  59  68 E3        30.10F
OLATHE EXE     MOCLDY    70  59  68 NE3       30.10S
SALINA         CLOUDY    74  57  55 NE10      30.10S
TOPEKA BILLARD CLOUDY    71  62  73 CALM      30.10S
TOPEKA FORBES  CLOUDY    69  61  75 CALM      30.10S
$$


USA.gov is the U.S. government's official web portal to all federal, state and local government web resources and services.